Wind_Speed
25 23 20 18 17 16 14 18 18 18 16 16 16 13 11 11 11 10 9 9 6 5
28 27 23 22 20 20 18 19 18 17 17 17 18 15 13 11 11 9 10 9 8 8
33 30 30 26 23 21 19 19 17 17 20 22 20 16 15 14 13 12 11 10 11 9
31 32 29 29 28 25 21 19 21 19 18 22 22 20 20 18 17 16 14 13 14 13
25 26 27 28 29 28 26 23 20 22 22 22 25 26 24 22 22 21 19 16 13 14
24 26 26 28 29 30 27 24 24 22 22 22 23 24 25 24 23 21 21 18 17 19
22 22 20 23 27 28 28 29 26 26 26 26 26 26 26 22 21 21 22 21 20 16
15 13 18 18 24 27 26 28 32 29 29 29 28 25 27 27 23 22 23 21 20 19
15 13 17 18 19 21 24 26 30 34 34 32 32 29 26 25 26 25 24 24 23 20
21 18 18 17 13 21 21 21 28 30 33 34 34 33 30 28 28 27 27 27 25 25
23 19 20 20 21 21 23 17 19 21 24 29 36 34 32 31 30 31 30 28 28 28
12 17 21 23 22 17 18 18 21 24 24 27 34 33 34 30 32 35 35 32 32 30
3 3 4 5 7 14 17 20 19 17 16 19 23 23 30 30 30 34 37 37 36 35
3 3 4 6 5 5 5 5 14 19 19 19 19 17 22 24 26 35 33 33 38 37
Wind_Direction
228 225 226 232 242 257 262 251 251 246 253 256 262 258 248 249 246 254 252 246 265 266
230 229 232 236 243 249 259 255 250 255 251 256 257 261 252 247 247 250 256 239 256 262
233 231 232 235 243 246 250 244 246 249 250 247 247 250 250 252 247 254 251 256 263 275
236 238 237 236 236 238 241 239 244 256 256 246 244 242 246 246 250 255 256 258 262 265
228 232 236 238 241 241 241 241 248 246 253 249 252 241 240 246 250 246 253 259 260 259
224 227 232 237 240 240 245 243 240 241 240 247 242 242 241 246 251 249 250 261 255 254
227 224 233 241 241 242 248 246 238 236 241 244 243 250 241 247 247 248 249 260 255 254
225 255 245 249 249 244 248 251 243 242 244 248 249 253 244 243 246 250 254 256 257 259
244 279 244 247 247 244 245 249 249 247 247 247 249 254 253 249 248 249 253 255 255 258
271 261 259 244 256 247 245 245 249 250 251 252 253 253 252 253 251 251 253 255 258 258
268 263 261 249 260 258 241 237 249 258 260 260 257 259 261 255 254 255 256 258 260 257
260 250 251 258 256 253 246 253 260 267 267 267 262 259 259 259 256 254 254 255 255 254
252 252 261 273 264 244 270 270 271 272 266 266 266 267 262 260 259 257 254 254 253 253
254 279 297 284 284 289 278 261 249 254 265 275 287 281 277 276 267 258 253 251 254 254
Height
811 814 816 819 822 823 824 826 828 830 831 833 834 835 834 835 835 836 838 837 836 836
808 811 813 816 819 821 822 824 827 828 829 830 831 831 832 833 834 835 835 835 835 835
802 805 808 811 814 816 819 820 822 824 826 826 828 829 829 830 831 832 833 833 834 833
796 800 803 805 807 810 812 815 818 819 820 823 824 826 827 828 829 829 830 831 833 832
789 793 796 799 803 806 807 810 812 814 816 818 820 823 824 825 825 826 827 828 828 827
785 788 790 793 798 802 805 805 808 810 812 814 817 820 821 821 822 822 823 824 824 824
783 784 786 789 792 796 799 802 803 805 808 810 812 814 816 818 818 819 820 821 821 821
780 783 783 784 787 789 792 796 799 801 803 806 808 809 810 812 814 815 816 817 817 818
778 778 779 781 784 786 787 790 793 795 797 800 802 803 805 807 808 810 812 813 814 814
773 775 776 779 779 781 783 786 788 790 793 794 796 798 800 802 804 805 806 807 809 810
770 771 773 774 774 777 779 781 784 786 788 789 789 792 794 796 798 799 801 802 803 804
769 769 770 771 771 772 774 776 778 780 782 784 784 785 788 789 791 793 793 794 795 796
768 768 768 767 766 767 767 768 772 775 776 778 779 780 781 782 784 785 786 786 787 788
769 767 766 765 764 764 766 767 768 771 772 775 775 775 775 775 777 777 777 777 777 778